Weather History for Plymouth, MA

Change the Weather History Date:

Wednesday, August 28, 2013

  Actual Average Record
Temperature  
Mean Temperature 71 °F -  
Max Temperature 78 °F 79 °F 96 °F (1948)
Min Temperature 64 °F 60 °F 42 °F (1989)
Cooling Degree Days 6    
Growing Degree Days 21 (Base 50)    
Moisture  
Dew Point 64 °F    
Average Humidity 88    
Maximum Humidity 97    
Minimum Humidity 66    
Precipitation  
Precipitation 0.00 in - - ()
Sea Level Pressure  
Sea Level Pressure 29.91 in    
Wind  
Wind Speed 3 mph (NE)    
Max Wind Speed 12 mph    
Max Gust Speed -    
Visibility 3 miles    
Events Fog    
Averages and records for this station are not official NWS values.
T = Trace of Precipitation, MM = Missing Value Source: NWS Daily Summary

Daily Weather History Graph

Daily Weather History Graph

Search for Another Location

Airport:

Trip Planner

Search our weather history database for the weather conditions in past years. The results will help you decide how hot, cold, wet, or windy it might be!

Date:

Astronomy

Aug. 28, 2013 Rise Set
Actual Time 6:04 AM EDT 7:22 PM EDT
Civil Twilight 5:35 AM EDT 7:51 PM EDT
Nautical Twilight 5:00 AM EDT 8:26 PM EDT
Astronomical Twilight 4:24 AM EDT 9:02 PM EDT
Moon 11:52 PM EDT (8/28) 2:00 PM EDT (8/28)
Length of Visible Light 14h 15m
Length of Day
13h 17m
Waning Gibbous, 47% of the Moon is Illuminated
Aug 28
Waning Gibbous
Sep 5
New
Sep 12
First Quarter
Sep 19
Full
Sep 26
Last Quarter

Hourly Weather History & Observations

Time (EDT) Temp. Dew Point Humidity Pressure Visibility Wind Dir Wind Speed Gust Speed Precip Events Conditions
12:52 AM 66.0 °F 64.0 °F 93% 29.90 in 0.2 mi WSW 4.6 mph - N/A Fog Fog
1:52 AM 66.0 °F 64.0 °F 93% 29.88 in 0.2 mi Calm Calm - N/A Fog Fog
2:52 AM 64.9 °F 63.0 °F 93% 29.88 in 0.2 mi Calm Calm - N/A Fog Fog
3:52 AM 64.9 °F 63.0 °F 93% 29.87 in 0.2 mi Calm Calm - N/A Fog Fog
3:59 AM 64.4 °F 62.6 °F 94% 29.87 in 0.2 mi Calm Calm - N/A Fog Fog
4:08 AM 64.4 °F 62.6 °F 94% 29.86 in 0.2 mi Calm Calm - N/A Fog Fog
4:52 AM 64.9 °F 63.0 °F 93% 29.87 in 0.2 mi North 3.5 mph - N/A Fog Fog
5:28 AM 64.4 °F 62.6 °F 94% 29.88 in 0.2 mi NNE 3.5 mph - N/A Fog Fog
5:41 AM 64.4 °F 62.6 °F 94% 29.88 in 0.2 mi Calm Calm - N/A Fog Fog
5:52 AM 64.0 °F 62.1 °F 93% 29.89 in 0.2 mi Calm Calm - N/A Fog Fog
6:18 AM 64.4 °F 62.6 °F 94% 29.90 in 0.2 mi NNE 3.5 mph - N/A Fog Fog
6:52 AM 64.9 °F 63.0 °F 93% 29.91 in 0.2 mi Calm Calm - N/A Fog Fog
7:10 AM 64.4 °F 62.6 °F 94% 29.91 in 0.2 mi Calm Calm - N/A Fog Fog
7:52 AM 64.9 °F 63.0 °F 93% 29.91 in 0.2 mi NNE 3.5 mph - N/A Fog Fog
8:36 AM 66.2 °F 64.4 °F 94% 29.91 in 0.8 mi ENE 6.9 mph - N/A   Overcast
8:52 AM 66.9 °F 66.0 °F 97% 29.91 in 1.0 mi Calm Calm - N/A   Overcast
9:03 AM 68.0 °F 64.4 °F 88% 29.91 in 3.0 mi NE 3.5 mph - N/A   Overcast
9:52 AM 71.1 °F 64.9 °F 81% 29.91 in 7.0 mi Variable 4.6 mph - N/A   Mostly Cloudy
10:10 AM 71.6 °F 66.2 °F 83% 29.91 in 7.0 mi ENE 4.6 mph - N/A   Scattered Clouds
10:52 AM 73.9 °F 66.0 °F 76% 29.91 in 9.0 mi ENE 5.8 mph - N/A   Partly Cloudy
11:52 AM 75.9 °F 66.0 °F 71% 29.91 in 10.0 mi Variable 5.8 mph - N/A   Clear
12:52 PM 75.9 °F 64.9 °F 69% 29.91 in 10.0 mi ENE 9.2 mph - N/A   Clear
1:52 PM 77.0 °F 66.0 °F 69% 29.90 in 10.0 mi NE 5.8 mph - N/A   Clear
2:52 PM 77.0 °F 64.9 °F 66% 29.89 in 10.0 mi ENE 8.1 mph - N/A   Clear
3:52 PM 78.1 °F 66.0 °F 66% 29.88 in 10.0 mi NNE 8.1 mph - N/A   Clear
4:52 PM 72.0 °F 64.9 °F 78% 29.89 in 10.0 mi NE 9.2 mph - N/A   Clear
5:52 PM 70.0 °F 64.0 °F 81% 29.91 in 7.0 mi NE 4.6 mph - N/A   Clear
6:38 PM 68.0 °F 64.4 °F 88% 29.90 in 4.0 mi Calm Calm - N/A   Scattered Clouds
6:52 PM 68.0 °F 64.0 °F 87% 29.91 in 4.0 mi ENE 4.6 mph - N/A   Partly Cloudy
7:35 PM 66.2 °F 62.6 °F 88% 29.92 in 1.8 mi NE 3.5 mph - N/A   Partly Cloudy
7:40 PM 66.2 °F 62.6 °F 88% 29.92 in 0.8 mi NE 4.6 mph - N/A   Mist
7:52 PM 66.0 °F 64.0 °F 93% 29.92 in 1.5 mi East 5.8 mph - N/A   Mostly Cloudy
8:00 PM 66.2 °F 64.4 °F 94% 29.92 in 0.8 mi East 6.9 mph - N/A   Mist
8:38 PM 64.4 °F 62.6 °F 94% 29.93 in 0.2 mi ENE 6.9 mph - N/A Fog Fog
8:50 PM 64.4 °F 62.6 °F 94% 29.94 in 0.5 mi NE 5.8 mph - N/A Fog Fog
8:52 PM 64.9 °F 63.0 °F 93% 29.94 in 0.5 mi NE 4.6 mph - N/A Fog Fog
9:52 PM 64.9 °F 63.0 °F 93% 29.96 in 0.5 mi Calm Calm - N/A Fog Fog
10:52 PM 64.9 °F 63.0 °F 93% 29.96 in 0.8 mi ENE 3.5 mph - N/A   Mist
11:09 PM 64.4 °F 62.6 °F 94% 29.96 in 1.0 mi NE 5.8 mph - N/A   Overcast
11:17 PM 64.4 °F 62.6 °F 94% 29.96 in 0.8 mi ENE 6.9 mph - N/A   Overcast
11:24 PM 64.4 °F 62.6 °F 94% 29.96 in 1.0 mi NE 8.1 mph - N/A   Overcast
11:52 PM 64.0 °F 62.1 °F 93% 29.97 in 1.2 mi NE 11.5 mph - N/A   Overcast